This is the latest recevied weather packets stored in our database for station/object KC1OEK-13. If no packets are shown the sender has not sent any weather packets the latest 10 day(s).
| Time | Temp. | Humidity | Pressure | Rain* | Wind** | Luminosity | Snow |
|---|---|---|---|---|---|---|---|
| 1787751969 | 21.67° C | 80% | 1020.9 hPa | 0 mm | - | 442 W/m² | - |
| 1787751665 | 21.67° C | 80% | 1021 hPa | 0 mm | - | 427 W/m² | - |
| 1787751359 | 21.11° C | 82% | 1021.2 hPa | 0 mm | - | 433 W/m² | - |
| 1787751055 | 20.56° C | 83% | 1021.2 hPa | 0 mm | - | 433 W/m² | - |
| 1787750750 | 20.56° C | 84% | 1021.4 hPa | 0 mm | - | 423 W/m² | - |
| 1787750444 | 20° C | 86% | 1021.4 hPa | 0 mm | - | 416 W/m² | - |
| 1787750139 | 20° C | 86% | 1021.4 hPa | 0 mm | - | 225 W/m² | - |
| 1787749836 | 19.44° C | 85% | 1021.4 hPa | 0 mm | - | 473 W/m² | - |
| 1787749531 | 18.89° C | 88% | 1021.4 hPa | 0 mm | - | 374 W/m² | - |
| 1787749226 | 18.89° C | 89% | 1021.4 hPa | 0 mm | - | 182 W/m² | - |
| 1787748921 | 18.33° C | 89% | 1021.3 hPa | 0 mm | - | 192 W/m² | - |
| 1787748615 | 18.33° C | 90% | 1021.3 hPa | 0 mm | - | 154 W/m² | - |
| 1787748310 | 18.33° C | 90% | 1021.2 hPa | 0 mm | - | 155 W/m² | - |
| 1787748007 | 17.78° C | 91% | 1021.3 hPa | 0 mm | - | 180 W/m² | - |
| 1787747701 | 17.78° C | 91% | 1021.4 hPa | 0 mm | - | 139 W/m² | - |
| 1787747395 | 17.78° C | 91% | 1021.2 hPa | 0 mm | - | 116 W/m² | - |
| 1787747090 | 17.22° C | 93% | 1021.2 hPa | 0 mm | - | 132 W/m² | - |
| 1787746787 | 16.67° C | 96% | 1021.3 hPa | 0 mm | - | 189 W/m² | - |
| 1787746485 | 16.67° C | 98% | 1021.1 hPa | 0 mm | - | 140 W/m² | - |
| 1787746185 | 16.67° C | 99% | 1021.1 hPa | 0 mm | - | 99 W/m² | - |
| 1787745879 | 16.11° C | 99% | 1021.2 hPa | 0 mm | - | 82 W/m² | - |
| 1787745577 | 16.11° C | 99% | 1021.2 hPa | 0 mm | - | 69 W/m² | - |
| 1787745273 | 15.56° C | 99% | 1021.2 hPa | 0 mm | - | 62 W/m² | - |
| 1787744968 | 15.56° C | 99% | 1021 hPa | 0 mm | - | 57 W/m² | - |
| 1787744664 | 15° C | 99% | 1021 hPa | 0 mm | - | 52 W/m² | - |
* Rain latest hour (hover to see other rain measurements)
** Current wind speed in m/s (hover to see current wind gust speed)